Probability
0 0 0 0 0 0 0 0 0 0 0 0 0 0 0 0 1 1 1 4 7 7 6 4 2 1 1 2 4 4 3 1 1 1 1 1 0 0 0 0 0 0 0 0
0 0 0 0 0 0 0 0 0 0 0 0 0 0 0 1 2 2 2 3 5 5 5 4 2 1 0 1 3 3 2 2 2 2 1 0 0 0 0 0 0 0 0 0
0 0 0 0 0 0 0 0 0 0 0 0 0 0 0 1 2 2 2 2 3 3 4 3 1 0 0 0 1 2 1 1 2 2 1 0 0 0 0 0 0 0 0 0
0 0 0 0 0 0 0 0 0 0 0 0 0 0 0 0 1 1 1 1 2 3 3 2 1 0 0 0 1 2 1 1 1 1 0 0 0 0 0 0 0 0 0 0
0 0 0 0 0 0 0 0 0 0 0 0 0 0 0 0 0 0 0 1 2 3 3 1 0 0 0 0 0 1 1 0 0 0 0 0 1 0 0 0 0 0 0 0
0 0 0 0 0 0 0 0 0 0 0 0 0 0 0 0 0 0 0 1 3 3 2 1 0 0 0 0 0 0 0 0 0 0 0 0 0 0 0 0 0 0 0 0
0 0 0 0 0 0 0 0 0 0 0 0 0 0 0 0 0 0 0 1 2 3 2 1 0 0 0 0 0 0 0 0 0 0 0 0 0 0 0 0 0 0 0 0
0 0 0 0 0 0 0 0 0 0 0 0 0 0 0 0 0 1 1 1 2 3 3 1 0 0 0 0 0 1 1 1 1 1 0 0 0 0 0 0 0 0 0 0
0 0 0 0 0 0 0 0 0 0 0 0 0 0 0 0 1 2 2 1 2 3 3 2 1 0 0 0 1 2 2 2 2 2 1 1 0 0 0 0 0 0 0 0
0 0 0 0 0 0 0 0 0 0 0 0 0 0 0 0 1 2 2 1 1 3 3 3 1 1 0 0 2 3 3 3 3 2 2 1 0 0 0 0 0 0 0 0
0 0 0 0 0 0 0 0 0 0 0 0 0 0 0 1 1 2 2 0 1 2 3 3 2 2 1 0 1 3 3 2 2 1 1 1 0 0 0 0 0 0 0 0
0 0 0 0 0 0 0 0 0 0 0 0 0 0 1 2 3 3 2 1 0 1 3 3 2 1 1 0 1 3 3 2 1 0 0 0 0 0 0 0 0 0 0 0
0 0 0 0 0 0 0 0 0 0 0 0 0 0 1 2 2 2 2 1 0 1 2 2 1 0 0 0 1 2 2 1 0 0 0 0 0 0 0 0 0 0 0 0
0 0 0 0 0 0 0 0 0 0 0 0 0 0 0 1 1 1 1 0 0 0 1 1 0 0 0 0 1 1 1 0 0 0 0 0 0 0 0 0 0 0 0 0
0 0 0 0 0 0 0 0 0 0 0 0 0 0 0 0 0 0 0 0 0 0 0 0 0 0 0 0 0 0 0 0 0 0 0 0 0 0 0 0 0 0 0 0
0 0 0 0 0 0 0 0 0 0 0 0 0 0 0 0 0 0 0 0 0 0 0 0 0 0 0 0 0 0 0 0 0 0 0 0 0 0 0 0 0 0 0 0
0 0 0 0 0 0 0 0 0 0 0 0 0 0 0 0 0 0 0 0 0 0 0 0 0 0 0 0 0 0 0 0 0 0 0 0 0 0 0 0 0 0 0 0
0 0 0 0 0 0 0 0 0 0 0 0 0 0 0 0 0 0 0 0 0 0 0 0 0 0 0 0 0 0 0 0 0 0 0 0 0 0 0 0 0 0 0 0
0 0 0 0 0 0 0 0 0 0 0 0 0 0 0 0 0 0 0 0 0 0 0 0 0 0 0 0 0 0 0 0 0 0 0 0 0 0 0 0 0 0 0 0
0 0 0 0 0 0 0 0 0 0 0 0 0 0 0 0 0 0 0 0 0 0 0 0 0 0 0 0 0 0 0 0 0 0 0 0 0 0 0 0 0 0 0 0
0 0 0 0 0 0 0 0 0 0 0 0 0 0 0 0 0 0 0 0 0 0 0 0 0 0 0 0 0 0 0 0 0 0 0 0 0 0 0 0 0 0 0 0
0 0 0 0 0 0 0 0 0 0 0 0 0 0 0 0 0 0 0 0 0 0 0 0 0 0 0 0 0 0 0 0 0 0 0 0 0 0 0 0 0 0 0 0
0 0 0 0 0 0 0 0 0 0 0 0 0 0 0 0 0 0 0 0 0 0 0 0 0 0 0 0 0 0 0 0 0 0 0 0 0 0 0 0 0 0 0 0
0 0 0 0 0 0 0 0 0 0 0 0 0 0 0 0 0 0 0 0 0 0 0 0 0 0 0 0 0 0 0 0 0 0 0 0 0 0 0 0 0 0 0 0
0 0 0 0 0 0 0 0 0 0 0 0 0 0 0 0 0 0 0 0 0 0 0 0 0 0 0 0 0 0 0 0 0 0 0 0 0 0 0 0 0 0 0 0
0 0 0 0 0 0 0 0 0 0 0 0 0 0 0 0 0 0 0 0 0 0 0 0 0 0 0 0 0 0 0 0 0 0 0 0 0 0 0 0 0 0 0 0
0 0 0 0 0 0 0 0 0 0 0 0 0 0 0 0 0 0 0 0 0 0 0 0 0 0 0 0 0 0 0 0 0 0 0 0 0 0 0 0 0 0 0 0
Wind_Speed
8 7 8 7 7 8 9 8 6 3 2 4 4 5 7 9 10 10 10 11 11 10 9 9 9 8 7 7 7 7 6 5 5 5 5 5 4 3 4 3 4 4 5 5
9 8 8 9 9 9 9 8 8 6 4 3 4 4 5 9 10 10 10 12 12 11 10 10 9 9 8 7 7 7 7 5 5 6 5 5 4 4 4 3 4 4 5 5
7 8 7 9 8 9 8 7 6 6 3 3 5 5 6 8 10 10 10 10 11 11 11 10 10 10 9 8 8 8 7 6 6 6 5 5 5 4 4 3 4 4 4 4
6 7 7 4 3 3 5 5 5 3 3 3 4 4 4 5 8 9 10 10 9 9 9 9 9 9 9 8 8 8 7 7 6 6 6 5 5 4 3 3 3 3 3 4
4 6 6 4 3 2 3 2 1 2 3 4 5 4 4 5 7 8 9 9 8 8 9 9 10 10 9 9 8 8 7 7 7 7 6 5 5 4 3 3 3 3 3 3
5 5 4 1 2 2 2 1 1 2 3 3 5 3 3 5 7 7 8 7 8 8 8 9 9 10 10 9 8 8 8 7 7 7 7 6 5 4 3 3 3 3 2 3
7 6 4 2 2 1 1 2 3 3 3 3 3 2 4 6 7 7 7 7 7 8 7 8 9 10 9 9 8 7 7 7 7 6 6 6 5 4 4 3 3 2 2 2
6 6 2 3 2 3 4 4 4 5 3 2 2 3 6 6 7 7 7 7 7 7 7 7 8 9 9 8 7 7 7 7 7 6 6 6 5 4 4 4 3 3 2 2
1 1 2 3 4 5 5 5 5 4 4 2 2 3 6 6 6 7 8 7 6 7 7 6 7 8 9 8 8 8 8 7 6 6 5 5 5 4 3 3 2 2 2 1
1 2 2 3 5 5 5 5 5 4 3 2 2 3 5 6 6 6 6 7 6 7 7 6 6 6 7 8 8 8 8 7 6 6 6 5 4 3 3 3 2 2 2 1
2 0 2 4 5 5 4 4 4 4 4 3 3 2 4 5 6 6 6 6 6 7 7 6 7 7 7 8 8 8 7 6 6 5 5 5 4 2 3 2 4 4 2 2
1 2 2 2 4 4 4 4 4 4 3 3 3 3 4 4 5 5 5 6 6 7 7 7 7 7 7 7 7 7 6 6 5 4 4 4 4 3 2 3 4 5 4 4
3 4 3 3 3 4 3 3 3 3 2 3 3 3 4 4 5 5 5 6 6 7 7 7 7 7 7 7 7 6 6 5 4 4 4 4 4 4 3 1 2 3 4 4
3 3 2 3 3 3 3 3 2 2 2 3 4 4 4 4 5 5 5 5 6 6 6 6 6 6 6 6 6 6 5 5 5 4 4 4 4 4 4 4 3 2 3 5
3 3 2 2 2 3 3 3 2 2 3 4 4 4 4 4 4 4 4 4 5 6 6 6 6 5 5 5 5 5 5 4 3 3 3 3 3 3 3 4 3 3 2 2
2 1 1 1 1 2 2 2 2 2 3 4 4 4 4 4 4 5 4 4 5 5 5 6 6 5 4 4 4 4 3 5 4 3 3 3 3 3 3 3 3 3 3 3
1 1 1 1 0 1 2 1 1 2 3 3 4 4 5 5 4 4 4 3 4 5 4 5 5 5 4 4 3 3 3 4 4 3 2 3 3 3 3 3 2 2 3 3
1 2 1 1 1 1 2 2 2 3 3 3 4 4 4 4 4 4 3 3 4 5 4 4 4 4 4 3 3 2 3 2 2 2 2 2 2 2 2 2 2 2 2 3
2 3 2 2 3 3 2 2 2 2 3 3 3 3 3 3 4 4 3 3 4 4 3 4 4 4 3 3 3 2 2 2 2 1 2 2 2 2 2 2 2 2 2 2
3 3 4 4 3 3 2 2 2 2 2 2 3 3 3 3 3 4 3 3 2 2 3 4 4 3 3 3 3 1 2 2 2 2 1 1 1 1 1 1 1 1 1 2
3 3 3 3 4 3 3 2 2 1 1 2 2 2 2 2 3 3 3 2 3 4 4 5 3 2 2 2 2 1 1 1 2 1 1 1 1 1 1 1 1 1 1 1
2 2 2 2 2 2 2 1 1 1 1 2 2 2 2 2 2 2 2 2 3 5 3 3 2 3 3 2 1 1 1 1 1 1 1 1 1 0 0 0 0 0 0 0
1 1 2 1 1 1 1 1 0 0 1 2 2 2 2 2 2 2 2 2 3 5 3 2 3 5 4 2 1 1 1 1 1 1 1 1 0 0 0 0 1 1 1 1
1 1 1 2 1 1 2 2 1 1 1 2 2 2 2 2 2 2 2 4 5 5 3 4 6 5 3 1 1 1 1 1 1 1 1 1 1 0 1 1 1 1 1 2
0 0 1 1 1 1 2 2 2 2 1 2 2 2 2 2 2 2 2 4 5 5 3 4 5 4 2 1 1 1 1 1 1 1 1 1 0 0 0 0 1 1 1 2
0 1 1 1 1 1 1 1 1 1 1 1 1 2 2 2 3 3 2 3 4 3 3 2 2 2 1 1 2 1 1 1 1 1 1 1 0 0 1 1 2 2 2 2
0 0 0 0 1 0 1 1 1 1 1 1 2 2 2 2 2 2 2 2 3 2 2 2 1 1 1 1 1 1 1 1 1 1 1 0 0 0 1 2 1 2 2 3
Wind_Direction
263 251 259 256 245 237 241 249 260 273 225 215 182 180 163 155 153 158 160 158 160 163 161 158 158 158 155 152 152 150 150 150 147 134 122 114 110 105 90 74 77 80 76 69
269 260 254 253 241 237 240 250 258 267 251 216 174 165 167 161 158 159 163 162 164 167 160 162 162 159 155 157 157 150 147 142 126 120 114 114 117 109 97 83 75 82 85 80
281 281 270 257 246 234 231 239 248 251 234 166 158 165 175 167 163 162 162 161 165 168 164 167 167 162 159 160 151 147 146 138 132 128 127 130 128 112 112 105 89 86 88 90
269 268 255 251 268 249 230 231 237 221 158 153 157 158 161 161 161 163 161 161 165 164 159 160 158 155 152 148 148 148 145 140 140 136 136 133 127 127 128 119 112 109 107 106
261 266 262 254 249 225 226 228 237 179 148 153 160 146 148 160 162 161 160 159 159 161 158 158 155 154 152 151 150 149 147 147 147 144 141 140 139 140 133 125 123 125 126 120
256 264 271 328 8 355 256 231 15 106 136 145 142 149 163 152 144 143 143 147 153 157 159 156 153 152 152 153 152 155 154 152 149 146 146 148 147 142 136 132 139 144 140 136
250 257 268 336 324 308 278 38 25 49 106 138 154 139 130 133 133 135 138 141 143 149 151 153 150 149 153 154 158 155 146 143 143 143 146 144 141 141 141 138 139 145 141 138
235 242 239 28 22 44 22 27 31 34 43 99 122 113 119 128 136 134 129 134 139 139 140 144 148 150 151 156 151 142 141 143 144 146 149 147 140 144 146 146 152 159 150 152
300 67 57 58 56 45 16 9 21 22 24 50 98 113 126 133 133 135 136 137 138 139 139 143 147 150 152 147 140 139 141 144 146 147 146 145 146 150 146 144 149 155 147 157
244 141 119 72 54 40 24 14 16 14 27 52 98 112 129 137 139 137 138 142 139 139 144 148 147 141 139 137 139 142 148 152 154 153 149 144 144 150 148 155 160 162 166 177
265 266 85 56 41 29 24 21 19 22 34 50 82 103 126 136 138 140 140 141 145 150 150 149 143 139 140 144 147 152 155 157 156 152 150 145 138 143 156 164 171 170 176 169
297 334 336 52 38 17 18 18 15 22 35 62 80 102 117 124 126 132 141 147 149 145 148 151 149 148 148 150 154 157 158 159 155 152 148 147 147 134 103 156 151 147 153 159
355 355 9 36 24 11 10 1 4 18 36 75 83 88 109 116 123 131 139 146 149 147 149 150 148 147 151 153 155 157 158 157 152 154 156 158 159 159 154 145 167 174 175 177
23 12 19 19 5 1 355 351 357 34 50 71 86 89 97 110 122 129 135 140 141 141 144 143 141 145 147 148 151 155 154 156 154 156 160 165 168 170 168 171 180 206 216 202
2 348 354 9 5 353 350 355 9 39 59 72 84 88 91 101 113 115 115 123 131 136 138 137 137 137 138 145 151 153 148 155 157 154 160 166 169 172 175 180 180 182 178 202
319 343 16 350 343 339 344 354 15 39 60 77 88 90 89 90 93 95 99 114 129 135 136 135 134 133 136 141 141 143 148 158 157 158 165 170 175 179 181 183 186 185 191 195
286 276 271 240 295 325 333 357 28 53 63 75 84 94 98 97 97 100 102 106 112 111 114 120 124 129 131 131 132 135 141 156 163 169 179 177 180 186 183 181 189 194 199 194
358 349 332 18 31 14 15 37 51 66 71 80 89 99 107 111 112 108 104 103 104 98 97 102 110 121 125 131 132 131 136 151 169 177 176 174 184 184 176 180 193 206 211 205
37 25 29 38 30 28 30 42 50 62 73 86 99 104 106 109 113 114 113 114 118 117 113 104 109 118 121 118 114 122 143 157 172 177 165 170 190 195 191 196 202 207 203 204
43 38 41 39 34 32 39 45 52 61 69 81 94 103 115 120 121 123 120 116 113 112 114 114 120 116 114 113 108 133 152 165 173 173 165 168 187 206 206 207 212 222 223 218
47 47 46 41 34 29 30 35 50 69 84 100 109 116 116 111 114 121 129 129 112 105 111 120 127 118 110 105 116 142 161 162 158 164 170 171 185 208 212 213 228 247 253 258
48 44 38 37 37 30 22 17 29 57 82 109 119 123 119 118 116 116 114 114 112 112 111 121 119 110 105 107 136 154 152 143 142 144 151 151 155 178 215 297 294 303 311 306
48 41 23 11 10 13 13 7 6 112 131 134 136 134 131 131 137 138 134 108 109 113 111 112 114 112 107 108 126 138 135 128 123 115 107 107 118 134 85 14 357 350 337 326
55 40 4 354 359 358 358 3 12 40 92 112 116 115 119 117 108 96 99 112 111 114 110 121 121 118 116 140 152 146 130 120 119 113 105 92 74 51 33 26 358 336 320 318
252 21 4 4 1 3 10 8 18 29 52 88 94 92 95 103 110 106 110 121 126 122 122 136 137 139 153 151 126 108 96 88 75 74 116 127 125 124 271 285 280 284 289 287
7 20 8 348 2 3 350 358 10 23 102 101 94 91 89 91 96 99 108 117 117 117 123 132 138 141 120 92 81 73 83 92 88 86 83 67 38 352 309 295 293 289 284 281
278 244 119 99 68 33 18 23 8 12 64 107 104 87 86 95 101 106 110 119 123 121 119 124 131 126 105 94 87 75 67 67 67 74 65 39 351 304 286 285 281 280 279 278